Location: Unspecified
(42.2936°N, 3.1641°W)
Time: 15:43:05
(UTC+02:00)

X-37B - Pass Details

Date: 15 March 2021
Orbit: 380 x 394 km, 45.0° (Epoch: 07 April)

Event Time Altitude Azimuth Distance (km) Brightness Sun altitude
Rises 21:08:36 0° 272° (W) 2,270 5.9 -20.8°
Reaches altitude 10° 21:10:42 10° 278° (W) 1,419 4.6 -21.1°
Enters shadow 21:13:29 47° 330° (NNW) 525 1.5 -21.6°
